• Join FlightAware (Why Join?)
  • Login
  • US Flag 
Gobble Gobble! 
11:05AM EST


 

Airport Tracker/Info


-or-


 

Live Flight TrackerFlight Track Log ✈ AAY874 ✈ 23-Mar-2014 ✈ KPIE - KBGR

Flight Track Log - Related Links

Times and Time Zones

All times are in EDT time to prevent confusion due to time zone crossing. See the AAY874 flight status page for this flight to view local times or setup timezone preferences in your user account.

Time Position Orientation Groundspeed Altitude Reporting Facility
EDT Latitude Longitude Course Direction KTS MPH feet Rate Location/Type
02:41PM 27.9000 -82.6833 North 187 215 500  Level Tampa TRACON
02:42PM 27.8167 -82.6833 180° South 208 239 3,300 1,800 Climbing Tampa TRACON
02:43PM 27.8167 -82.7333 270° West 224 258 4,300 1,920 Climbing Tampa TRACON
02:44PM 27.8833 -82.7500 348° North 285 328 7,000 1,860 Climbing Tampa TRACON
02:47PM 28.6716 -82.6353 North  Level FlightAware Approximate
02:48PM 28.1622 -82.6900 11° North 351 404 12,300  Level Jacksonville Center
02:49PM 28.2728 -82.6664 11° North 400 460 15,000 2,460 Climbing Jacksonville Center
02:50PM 28.3833 -82.6425 11° North 413 475 17,300 1,980 Climbing Jacksonville Center
02:51PM 28.4939 -82.6469 358° North 400 460 19,000 1,680 Climbing Jacksonville Center
02:52PM 28.6067 -82.6489 359° North 400 460 20,700 1,620 Climbing Jacksonville Center
02:53PM 28.7339 -82.6486 360° North 406 467 22,300 1,500 Climbing Jacksonville Center
02:54PM 28.8508 -82.6556 357° North 406 467 23,800 1,800 Climbing Jacksonville Center
02:55PM 28.9678 -82.6553 360° North 411 473 25,900 1,620 Climbing Jacksonville Center
02:56PM 29.0847 -82.6575 359° North 411 473 27,100 1,260 Climbing Jacksonville Center
02:57PM 29.1975 -82.6522 North 406 467 28,500 1,260 Climbing Jacksonville Center
02:58PM 29.3122 -82.6450 North 406 467 29,700 720 Climbing Jacksonville Center
02:59PM 29.4269 -82.6444 360° North 406 467 30,000 240 Climbing Jacksonville Center
03:00PM 29.5397 -82.6633 352° North 401 461 30,200 300 Climbing Jacksonville Center
03:01PM 29.6525 -82.6750 355° North 406 467 30,700 360 Climbing Jacksonville Center
03:02PM 29.7633 -82.6869 355° North 406 467 31,000 120 Climbing Jacksonville Center
03:03PM 29.8800 -82.6889 359° North 406 467 31,000  Level Jacksonville Center
03:04PM 30.0011 -82.6600 12° North 419 482 31,000  Level Jacksonville Center
03:05PM 30.1200 -82.6333 11° North 432 497 31,000 -60 Level Jacksonville Center
03:06PM 30.2392 -82.6089 10° North 432 497 30,900 -60 Descending Jacksonville Center
03:07PM 30.3581 -82.5844 10° North 432 497 30,900  Level Jacksonville Center
03:08PM 30.4750 -82.5622 North 426 490 30,900  Level Jacksonville Center
03:09PM 30.5853 -82.4894 30° Northeast 431 496 31,000  Climbing Jacksonville Center
03:10PM 30.6978 -82.3997 34° Northeast 455 524 31,000  Level Jacksonville Center
03:11PM 30.8058 -82.3122 35° Northeast 467 537 31,000 -60 Level Jacksonville Center
03:12PM 30.9161 -82.2194 36° Northeast 479 551 30,900  Descending Jacksonville Center
03:13PM 31.0306 -82.1289 34° Northeast 487 560 31,000  Climbing Jacksonville Center
03:14PM 31.1178 -82.0553 36° Northeast 487 560 31,000 -60 Level Jacksonville Center
03:15PM 31.2361 -81.9594 35° Northeast 487 560 30,900  Descending Jacksonville Center
03:16PM 31.3397 -81.8708 36° Northeast 476 548 31,000  Climbing Jacksonville Center
03:17PM 31.4497 -81.7844 34° Northeast 470 541 31,000  Level Jacksonville Center
03:18PM 31.5658 -81.6881 35° Northeast 470 541 31,000  Level Jacksonville Center
03:19PM 31.6714 -81.5989 36° Northeast 463 533 31,000  Level Jacksonville Center
03:20PM 31.7831 -81.5067 35° Northeast 479 551 31,000  Level Jacksonville Center
03:21PM 31.8867 -81.4197 35° Northeast 473 544 31,000  Level Jacksonville Center
03:22PM 31.9836 -81.3300 38° Northeast 473 544 31,000 -60 Level Jacksonville Center
03:23PM 32.0867 -81.2275 40° Northeast 484 557 30,900  Descending Jacksonville Center
03:24PM 32.1917 -81.1250 40° Northeast 489 563 31,000  Climbing Jacksonville Center
03:25PM 32.3072 -81.0147 39° Northeast 489 563 31,000  Level Jacksonville Center
03:26PM 32.4119 -80.9117 40° Northeast 484 557 31,000  Level Jacksonville Center
03:27PM 32.5044 -80.8161 41° Northeast 484 557 31,000  Level Jacksonville Center
03:28PM 32.6072 -80.7150 40° Northeast 484 557 31,000 -60 Level Jacksonville Center
03:29PM 32.7117 -80.6114 40° Northeast 484 557 30,900  Descending Jacksonville Center
03:30PM 32.8164 -80.5072 40° Northeast 489 563 31,000  Climbing Jacksonville Center
03:31PM 32.9228 -80.4031 39° Northeast 495 570 31,000  Level Jacksonville Center
03:32PM 33.0414 -80.2858 40° Northeast 494 568 31,000  Level Jacksonville Center
03:33PM 33.1456 -80.1786 41° Northeast 494 568 31,000  Level Jacksonville Center
03:34PM 33.2497 -80.0736 40° Northeast 494 568 31,000 -60 Level Jacksonville Center
03:35PM 33.3558 -79.9658 40° Northeast 494 568 30,900  Descending Jacksonville Center
03:36PM 33.4578 -79.8628 40° Northeast 494 568 31,000  Climbing Jacksonville Center
03:37PM 33.5594 -79.7572 41° Northeast 494 568 30,900  Descending Jacksonville Center
03:38PM 33.6633 -79.6511 40° Northeast 494 568 31,000  Climbing Jacksonville Center
03:39PM 33.7689 -79.5422 41° Northeast 494 568 31,000  Level Jacksonville Center
03:40PM 33.8725 -79.4358 40° Northeast 494 568 31,000 -60 Level Jacksonville Center
03:41PM 33.9617 -79.3447 40° Northeast 488 562 30,900 300 Descending Jacksonville Center
03:42PM 34.0653 -79.2378 41° Northeast 488 562 31,600 720 Climbing Jacksonville Center
03:43PM 34.2300 -79.0658 41° Northeast 473 544 32,900 480 Climbing Washington Center
03:44PM 34.3369 -78.9722 36° Northeast 473 544 33,000  Climbing Washington Center
03:45PM 34.4497 -78.8886 31° Northeast 468 539 32,900  Descending Washington Center
03:46PM 34.5628 -78.8025 32° Northeast 473 544 33,000  Climbing Washington Center
03:47PM 34.6861 -78.7089 32° Northeast 473 544 33,000  Level Washington Center
03:48PM 34.7969 -78.6219 33° Northeast 473 544 33,000  Level Washington Center
03:49PM 34.8928 -78.5469 33° Northeast 468 539 33,000  Level Washington Center
03:50PM 35.0053 -78.4625 32° Northeast 468 539 33,000  Level Washington Center
03:51PM 35.1158 -78.3750 33° Northeast 474 545 33,000  Level Washington Center
03:52PM 35.2264 -78.2897 32° Northeast 469 540 33,000  Level Washington Center
03:53PM 35.3367 -78.2044 32° Northeast 469 540 33,000  Level Washington Center
03:54PM 35.4619 -78.1089 32° Northeast 475 547 33,000  Level Washington Center
03:55PM 35.5764 -78.0181 33° Northeast 480 552 33,000  Level Washington Center
03:56PM 35.6889 -77.9319 32° Northeast 480 552 33,000  Level Washington Center
03:57PM 35.8011 -77.8431 33° Northeast 480 552 33,000  Level Washington Center
03:58PM 35.9133 -77.7567 32° Northeast 480 552 33,000  Level Washington Center
03:59PM 36.0233 -77.6619 35° Northeast 485 558 33,000  Level Washington Center
04:00PM 36.1314 -77.5619 37° Northeast 485 558 33,000  Level Washington Center
04:01PM 36.2183 -77.4842 36° Northeast 485 558 33,000  Level Washington Center
04:02PM 36.3369 -77.3711 38° Northeast 485 558 33,000  Level Washington Center
04:03PM 36.4428 -77.2675 38° Northeast 485 558 33,000  Level Washington Center
04:04PM 36.5631 -77.1539 37° Northeast 490 564 33,000  Level Washington Center
04:05PM 36.6708 -77.0525 37° Northeast 485 558 33,000  Level Washington Center
04:06PM 36.7825 -76.9508 36° Northeast 491 565 33,000  Level Washington Center
04:07PM 36.8922 -76.8514 36° Northeast 491 565 33,000  Level Washington Center
04:08PM 37.0039 -76.7492 36° Northeast 486 559 33,000  Level Washington Center
04:09PM 37.1153 -76.6494 36° Northeast 486 559 33,000  Level Washington Center
04:10PM 37.2267 -76.5492 36° Northeast 486 559 33,000  Level Washington Center
04:11PM 37.3381 -76.4461 36° Northeast 486 559 33,000  Level Washington Center
04:12PM 37.4492 -76.3425 37° Northeast 486 559 33,000  Level Washington Center
04:13PM 37.5603 -76.2442 35° Northeast 486 559 33,000 -60 Level Washington Center
04:14PM 37.6650 -76.1533 34° Northeast 493 567 32,900 -60 Descending Washington Center
04:15PM 37.7886 -76.0386 36° Northeast 498 573 32,900  Level Washington Center
04:16PM 37.8892 -75.9364 39° Northeast 498 573 33,000  Climbing Washington Center
04:17PM 37.9978 -75.8342 37° Northeast 498 573 33,000  Level Washington Center
04:18PM 38.1106 -75.7289 36° Northeast 498 573 33,000  Level Washington Center
04:19PM 38.2231 -75.6233 36° Northeast 498 573 33,000 -60 Level Washington Center
04:20PM 38.3483 -75.5097 35° Northeast 498 573 32,900  Descending Washington Center
04:21PM 38.4733 -75.4564 18° North 475 547 33,000  Climbing Washington Center
04:22PM 38.6003 -75.4058 17° North 475 547 32,900  Descending Washington Center
04:23PM 38.7275 -75.3575 17° North 475 547 33,000  Climbing Washington Center
04:24PM 38.8503 -75.3039 19° North 470 541 33,000 -60 Level Washington Center
04:25PM 38.9794 -75.2444 20° North 470 541 32,900  Descending Washington Center
04:26PM 39.1044 -75.1958 17° North 470 541 33,000  Climbing Washington Center
04:27PM 39.2333 -75.1386 19° North 475 547 32,900  Descending Washington Center
04:28PM 39.3581 -75.0628 25° Northeast 482 555 33,000  Climbing Washington Center
04:29PM 39.4700 -74.9492 38° Northeast 490 564 32,900  Descending Washington Center
04:31PM 39.6822 -74.7333 38° Northeast 507 583 33,000  Climbing New York Center
04:32PM 39.7986 -74.6183 37° Northeast 512 589 33,000  Level New York Center
04:33PM 39.9169 -74.5058 36° Northeast 512 589 33,000  Level New York Center
04:34PM 40.0347 -74.4011 34° Northeast 517 595 33,000  Level New York Center
04:35PM 40.1528 -74.2958 34° Northeast 512 589 33,000  Level New York Center
04:38PM 40.4386 -74.0422 34° Northeast 520 598 33,000  Level Boston Center
04:39PM 40.5614 -73.9328 34° Northeast 520 598 33,000  Level Boston Center
04:40PM 40.6808 -73.8231 35° Northeast 520 598 33,000  Level Boston Center
04:41PM 40.8003 -73.7128 35° Northeast 521 600 33,000  Level Boston Center
04:42PM 40.9197 -73.6022 35° Northeast 521 600 33,000  Level Boston Center
04:43PM 41.0642 -73.4686 35° Northeast 525 604 33,000  Level Boston Center
04:44PM 41.1747 -73.3372 42° Northeast 539 620 33,000  Level Boston Center
04:45PM 41.2881 -73.2103 40° Northeast 533 613 33,000  Level Boston Center
04:46PM 41.4011 -73.0794 41° Northeast 533 613 33,000  Level Boston Center
04:47PM 41.5128 -72.9511 41° Northeast 532 612 33,000  Level Boston Center
04:48PM 41.6142 -72.8328 41° Northeast 532 612 33,000  Level Boston Center
04:49PM 41.7469 -72.6786 41° Northeast 532 612 33,000  Level Boston Center
04:50PM 41.8572 -72.5481 41° Northeast 533 613 33,000  Level Boston Center
04:51PM 41.9672 -72.4175 41° Northeast 533 613 33,000  Level Boston Center
04:52PM 42.0772 -72.2867 41° Northeast 533 613 33,000  Level Boston Center
04:53PM 42.1886 -72.1539 41° Northeast 534 615 33,000  Level Boston Center
04:54PM 42.2981 -72.0219 42° Northeast 534 615 33,000  Level Boston Center
04:55PM 42.4089 -71.8886 42° Northeast 534 615 33,000  Level Boston Center
04:56PM 42.5192 -71.7558 42° Northeast 534 615 33,000  Level Boston Center
04:57PM 42.6506 -71.5953 42° Northeast 534 615 33,000  Level Boston Center
04:58PM 42.7536 -71.4697 42° Northeast 532 612 33,000  Level Boston Center
04:59PM 42.8628 -71.3350 42° Northeast 531 611 33,000  Level Boston Center
05:00PM 42.9714 -71.2008 42° Northeast 529 609 33,000  Level Boston Center
05:01PM 43.0800 -71.0653 42° Northeast 528 608 33,000  Level Boston Center
05:02PM 43.1900 -70.9300 42° Northeast 529 609 33,000  Level Boston Center
05:03PM 43.3211 -70.7644 43° Northeast 530 610 33,000  Level Boston Center
05:04PM 43.4233 -70.6372 42° Northeast 528 608 33,000  Level Boston Center
05:05PM 43.5319 -70.4989 43° Northeast 526 605 33,000  Level Boston Center
05:06PM 43.6417 -70.3592 43° Northeast 530 610 33,000 -540 Level Boston Center
05:07PM 43.7506 -70.2178 43° Northeast 531 611 31,900 -2,220 Descending Boston Center
05:08PM 43.8606 -70.0758 43° Northeast 536 617 28,600 -2,880 Descending Boston Center
05:09PM 43.9719 -69.9328 43° Northeast 542 624 26,100 -2,340 Descending Boston Center
05:10PM 44.0808 -69.7917 43° Northeast 539 620 24,000 -1,800 Descending Boston Center
05:11PM 44.1858 -69.6561 43° Northeast 515 593 22,400 -1,980 Descending Boston Center
05:12PM 44.2819 -69.5269 44° Northeast 484 557 19,900 -3,000 Descending Boston Center
05:13PM 44.3931 -69.3822 43° Northeast 458 527 16,400 -3,000 Descending Boston Center
05:14PM 44.4742 -69.2622 47° Northeast 430 495 13,800 -1,860 Descending Boston Center
05:15PM 44.5311 -69.1367 58° Northeast 389 448 12,700 -1,260 Descending Boston Center
05:16PM 44.5786 -69.0347 57° Northeast 325 374 11,200 -2,040 Descending Boston Center
05:17PM 44.5936 -68.9247 79° East 294 338 8,600 -2,580 Descending Boston Center
05:18PM 44.5969 -68.8161 87° East 283 326 6,000 -2,520 Descending Boston Center
05:19PM 44.6275 -68.7403 60° Northeast 249 287 3,600 -1,740 Descending Boston Center
05:20PM 44.6836 -68.7233 12° North 214 246 2,500 -840 Descending Boston Center
05:21PM 44.7306 -68.7267 357° North 179 206 2,000 -540 Descending Boston Center
05:23PM 44.7586 -68.7569 323° Northwest 136 157 1,400 -720 Descending Boston Center
05:24PM 44.7842 -68.7947 314° West 132 152 600 -600 Descending Boston Center
05:25PM 44.8131 -68.8367 314° West 132 152 300 -300 Descending Boston Center